Time,TemperatureF,DewpointF,PressureIn,WindDirection,WindDirectionDegrees,WindSpeedMPH,WindSpeedGustMPH,Humidity,HourlyPrecipIn,Conditions,Clouds,dailyrainin,SoftwareType,DateUTC
2012-01-23 00:00:00,52.5,40.3,29.71,WSW,241,14.5,16.8,63,0.00,,,0.00,VWS V13.01,2012-01-23 06:00:00,
2012-01-23 00:05:00,52.2,40.0,29.71,SW,229,13.6,13.6,63,0.00,,,0.00,VWS V13.01,2012-01-23 06:05:00,
2012-01-23 00:10:00,51.8,39.6,29.71,SW,222,13.2,13.2,63,0.00,,,0.00,VWS V13.01,2012-01-23 06:10:00,
2012-01-23 00:15:00,51.6,39.8,29.71,WSW,249,14.1,14.1,64,0.00,,,0.00,VWS V13.01,2012-01-23 06:15:00,
2012-01-23 00:20:00,51.1,39.7,29.71,SW,232,15.4,15.4,65,0.00,,,0.00,VWS V13.01,2012-01-23 06:20:00,
2012-01-23 00:25:00,50.7,39.8,29.71,SW,235,8.1,15.0,66,0.00,,,0.00,VWS V13.01,2012-01-23 06:25:00,
2012-01-23 00:30:00,50.5,39.2,29.74,SW,233,18.8,18.8,65,0.00,,,0.00,VWS V13.01,2012-01-23 06:30:00,
2012-01-23 00:35:00,50.5,38.4,29.74,SW,231,15.0,16.3,63,0.00,,,0.00,VWS V13.01,2012-01-23 06:35:00,
2012-01-23 00:40:00,50.2,38.1,29.74,WSW,245,14.5,14.5,63,0.00,,,0.00,VWS V13.01,2012-01-23 06:40:00,
2012-01-23 00:45:00,49.8,37.8,29.74,SW,227,18.8,18.8,63,0.00,,,0.00,VWS V13.01,2012-01-23 06:45:00,
2012-01-23 00:50:00,49.5,37.4,29.74,SW,223,20.6,20.6,63,0.00,,,0.00,VWS V13.01,2012-01-23 06:50:00,
2012-01-23 00:55:00,48.9,36.9,29.74,SW,219,22.8,24.2,63,0.00,,,0.00,VWS V13.01,2012-01-23 06:55:00,
2012-01-23 01:00:00,48.4,36.4,29.77,SW,219,17.9,17.9,63,0.00,,,0.00,VWS V13.01,2012-01-23 07:00:00,
2012-01-23 01:05:00,48.0,36.4,29.77,WSW,250,15.4,16.3,64,0.00,,,0.00,VWS V13.01,2012-01-23 07:05:00,
2012-01-23 01:10:00,47.8,35.9,29.77,SW,225,25.5,25.5,63,0.00,,,0.00,VWS V13.01,2012-01-23 07:10:00,
2012-01-23 01:15:00,47.7,35.7,29.77,West,265,16.3,16.3,63,0.00,,,0.00,VWS V13.01,2012-01-23 07:15:00,
2012-01-23 01:20:00,47.3,35.4,29.77,WSW,238,22.8,22.8,63,0.00,,,0.00,VWS V13.01,2012-01-23 07:20:00,
2012-01-23 01:25:00,47.5,35.5,29.77,SW,236,20.1,20.1,63,0.00,,,0.00,VWS V13.01,2012-01-23 07:25:00,
2012-01-23 01:30:00,47.3,35.4,29.77,SW,227,16.3,17.0,63,0.00,,,0.00,VWS V13.01,2012-01-23 07:30:00,
2012-01-23 01:35:00,47.3,35.4,29.77,WSW,254,14.1,19.7,63,0.00,,,0.00,VWS V13.01,2012-01-23 07:35:00,
2012-01-23 01:36:00,47.3,35.4,29.77,SW,220,15.4,19.7,63,0.00,,,0.00,VWS V13.01,2012-01-23 07:36:00,
2012-01-23 01:41:00,47.1,35.2,29.77,SW,227,14.1,16.3,63,0.00,,,0.00,VWS V13.01,2012-01-23 07:41:00,
2012-01-23 01:46:00,47.1,35.2,29.80,SW,226,12.8,14.1,63,0.00,,,0.00,VWS V13.01,2012-01-23 07:46:00,
2012-01-23 01:51:00,46.9,35.0,29.80,WSW,249,12.8,23.7,63,0.00,,,0.00,VWS V13.01,2012-01-23 07:51:00,
2012-01-23 01:56:00,46.8,35.2,29.80,WSW,257,11.0,13.2,64,0.00,,,0.00,VWS V13.01,2012-01-23 07:56:00,
2012-01-23 02:01:00,46.6,35.1,29.80,SW,235,13.2,13.2,64,0.00,,,0.00,VWS V13.01,2012-01-23 08:01:00,
2012-01-23 02:06:00,46.6,35.1,29.80,SW,236,10.5,15.4,64,0.00,,,0.00,VWS V13.01,2012-01-23 08:06:00,
2012-01-23 02:11:00,46.4,34.9,29.80,WSW,244,7.6,12.3,64,0.00,,,0.00,VWS V13.01,2012-01-23 08:11:00,
2012-01-23 02:16:00,46.2,35.1,29.80,West,261,8.3,8.3,65,0.00,,,0.00,VWS V13.01,2012-01-23 08:16:00,
2012-01-23 02:21:00,46.0,35.0,29.80,SW,227,13.2,13.2,65,0.00,,,0.00,VWS V13.01,2012-01-23 08:21:00,
2012-01-23 02:26:00,46.0,35.0,29.80,SW,219,10.1,11.0,65,0.00,,,0.00,VWS V13.01,2012-01-23 08:26:00,
2012-01-23 02:31:00,45.9,34.8,29.83,SW,232,8.7,14.1,65,0.00,,,0.00,VWS V13.01,2012-01-23 08:31:00,
2012-01-23 02:36:00,45.5,34.8,29.83,SW,233,13.2,13.2,66,0.00,,,0.00,VWS V13.01,2012-01-23 08:36:00,
2012-01-23 02:41:00,45.3,34.6,29.83,WSW,241,12.8,17.0,66,0.00,,,0.00,VWS V13.01,2012-01-23 08:41:00,
2012-01-23 02:46:00,45.3,34.3,29.86,WSW,240,8.7,8.7,65,0.00,,,0.00,VWS V13.01,2012-01-23 08:46:00,
2012-01-23 02:51:00,45.3,33.9,29.86,WSW,257,12.8,12.8,64,0.00,,,0.00,VWS V13.01,2012-01-23 08:51:00,
2012-01-23 02:56:00,45.0,33.5,29.86,WSW,240,11.0,11.0,64,0.00,,,0.00,VWS V13.01,2012-01-23 08:56:00,
2012-01-23 03:01:00,44.8,33.0,29.86,SW,235,20.6,20.6,63,0.00,,,0.00,VWS V13.01,2012-01-23 09:01:00,
2012-01-23 03:06:00,44.4,33.0,29.86,SW,231,16.3,16.3,64,0.00,,,0.00,VWS V13.01,2012-01-23 09:06:00,
2012-01-23 03:11:00,44.2,32.8,29.86,WSW,254,9.6,17.0,64,0.00,,,0.00,VWS V13.01,2012-01-23 09:11:00,
2012-01-23 03:16:00,44.2,32.8,29.86,West,260,8.7,11.4,64,0.00,,,0.00,VWS V13.01,2012-01-23 09:16:00,
2012-01-23 03:21:00,44.1,32.7,29.86,WSW,237,11.9,11.9,64,0.00,,,0.00,VWS V13.01,2012-01-23 09:21:00,
2012-01-23 03:26:00,43.9,32.5,29.86,SW,225,11.0,12.8,64,0.00,,,0.00,VWS V13.01,2012-01-23 09:26:00,
2012-01-23 03:31:00,43.7,32.3,29.86,WSW,246,8.3,8.7,64,0.00,,,0.00,VWS V13.01,2012-01-23 09:31:00,
2012-01-23 03:36:00,43.5,32.5,29.86,SW,225,8.1,11.0,65,0.00,,,0.00,VWS V13.01,2012-01-23 09:36:00,
2012-01-23 03:41:00,43.3,32.4,29.86,WSW,239,7.6,8.7,65,0.00,,,0.00,VWS V13.01,2012-01-23 09:41:00,
2012-01-23 03:46:00,43.2,32.2,29.86,WSW,246,8.7,8.7,65,0.00,,,0.00,VWS V13.01,2012-01-23 09:46:00,
2012-01-23 03:51:00,43.2,32.2,29.86,WSW,239,8.1,8.1,65,0.00,,,0.00,VWS V13.01,2012-01-23 09:51:00,
2012-01-23 03:56:00,43.0,32.4,29.86,WSW,248,8.7,11.0,66,0.00,,,0.00,VWS V13.01,2012-01-23 09:56:00,
2012-01-23 04:01:00,43.0,32.4,29.86,WSW,253,8.3,9.2,66,0.00,,,0.00,VWS V13.01,2012-01-23 10:01:00,
2012-01-23 04:06:00,42.8,32.2,29.86,WSW,249,6.3,6.3,66,0.00,,,0.00,VWS V13.01,2012-01-23 10:06:00,
2012-01-23 04:11:00,42.4,32.3,29.86,WSW,239,5.8,10.1,67,0.00,,,0.00,VWS V13.01,2012-01-23 10:11:00,
2012-01-23 04:16:00,42.4,32.3,29.89,WSW,254,6.3,8.3,67,0.00,,,0.00,VWS V13.01,2012-01-23 10:16:00,
2012-01-23 04:21:00,42.3,32.5,29.89,WSW,255,4.9,6.3,68,0.00,,,0.00,VWS V13.01,2012-01-23 10:21:00,
2012-01-23 04:26:00,42.1,32.3,29.89,West,260,6.3,6.3,68,0.00,,,0.00,VWS V13.01,2012-01-23 10:26:00,
2012-01-23 04:31:00,41.9,32.1,29.89,SW,232,8.1,8.1,68,0.00,,,0.00,VWS V13.01,2012-01-23 10:31:00,
2012-01-23 04:36:00,41.9,32.1,29.89,WSW,256,7.6,7.6,68,0.00,,,0.00,VWS V13.01,2012-01-23 10:36:00,
2012-01-23 04:41:00,41.7,32.0,29.89,West,259,8.3,8.3,68,0.00,,,0.00,VWS V13.01,2012-01-23 10:41:00,
2012-01-23 04:46:00,41.7,32.0,29.89,West,273,7.6,8.1,68,0.00,,,0.00,VWS V13.01,2012-01-23 10:46:00,
2012-01-23 04:51:00,41.5,32.1,29.89,West,269,6.3,6.3,69,0.00,,,0.00,VWS V13.01,2012-01-23 10:51:00,
2012-01-23 04:56:00,41.4,32.0,29.89,WSW,254,5.8,5.8,69,0.00,,,0.00,VWS V13.01,2012-01-23 10:56:00,
2012-01-23 05:01:00,41.2,32.2,29.89,SW,236,7.6,7.6,70,0.00,,,0.00,VWS V13.01,2012-01-23 11:01:00,
2012-01-23 05:06:00,41.0,32.0,29.89,SW,226,8.1,8.1,70,0.00,,,0.00,VWS V13.01,2012-01-23 11:06:00,
2012-01-23 05:11:00,41.0,32.0,29.89,WSW,251,4.0,8.1,70,0.00,,,0.00,VWS V13.01,2012-01-23 11:11:00,
2012-01-23 05:16:00,40.8,32.2,29.89,WSW,239,5.4,5.8,71,0.00,,,0.00,VWS V13.01,2012-01-23 11:16:00,
2012-01-23 05:21:00,40.6,32.0,29.89,WSW,239,7.6,7.6,71,0.00,,,0.00,VWS V13.01,2012-01-23 11:21:00,
2012-01-23 05:26:00,40.6,32.0,29.89,WSW,241,8.1,8.1,71,0.00,,,0.00,VWS V13.01,2012-01-23 11:26:00,
2012-01-23 05:31:00,40.6,32.0,29.92,WSW,241,6.3,8.3,71,0.00,,,0.00,VWS V13.01,2012-01-23 11:31:00,
2012-01-23 05:36:00,40.5,32.2,29.92,WSW,239,5.4,5.8,72,0.00,,,0.00,VWS V13.01,2012-01-23 11:36:00,
2012-01-23 05:41:00,40.5,32.2,29.92,SW,231,4.9,4.9,72,0.00,,,0.00,VWS V13.01,2012-01-23 11:41:00,
2012-01-23 05:46:00,40.3,32.0,29.92,WSW,255,5.4,5.8,72,0.00,,,0.00,VWS V13.01,2012-01-23 11:46:00,
2012-01-23 05:51:00,40.1,32.2,29.92,SW,226,5.8,5.8,73,0.00,,,0.00,VWS V13.01,2012-01-23 11:51:00,
2012-01-23 05:56:00,40.1,32.2,29.92,SW,236,3.6,4.0,73,0.00,,,0.00,VWS V13.01,2012-01-23 11:56:00,
2012-01-23 06:01:00,39.9,32.3,29.92,West,260,4.0,4.0,74,0.00,,,0.00,VWS V13.01,2012-01-23 12:01:00,
2012-01-23 06:06:00,39.7,32.1,29.92,WSW,250,3.6,4.0,74,0.00,,,0.00,VWS V13.01,2012-01-23 12:06:00,
2012-01-23 06:11:00,39.6,32.3,29.92,WSW,238,5.4,5.4,75,0.00,,,0.00,VWS V13.01,2012-01-23 12:11:00,
2012-01-23 06:16:00,39.6,32.3,29.92,WSW,238,4.0,4.0,75,0.00,,,0.00,VWS V13.01,2012-01-23 12:16:00,
2012-01-23 06:21:00,39.6,32.6,29.92,SSW,207,3.1,4.9,76,0.00,,,0.00,VWS V13.01,2012-01-23 12:21:00,
2012-01-23 06:26:00,39.6,32.3,29.92,WSW,255,2.2,2.7,75,0.00,,,0.00,VWS V13.01,2012-01-23 12:26:00,
2012-01-23 06:31:00,39.4,32.5,29.92,WSW,246,4.0,4.0,76,0.00,,,0.00,VWS V13.01,2012-01-23 12:31:00,
2012-01-23 06:36:00,39.4,32.5,29.92,SW,228,2.7,2.7,76,0.00,,,0.00,VWS V13.01,2012-01-23 12:36:00,
2012-01-23 06:41:00,39.2,32.3,29.92,WSW,257,0.0,0.0,76,0.00,,,0.00,VWS V13.01,2012-01-23 12:41:00,
2012-01-23 06:46:00,39.0,32.4,29.92,WSW,248,0.0,0.0,77,0.00,,,0.00,VWS V13.01,2012-01-23 12:46:00,
2012-01-23 06:51:00,38.8,32.3,29.92,WSW,248,0.0,0.0,77,0.00,,,0.00,VWS V13.01,2012-01-23 12:51:00,
2012-01-23 06:56:00,38.5,32.2,29.92,WSW,248,0.0,0.0,78,0.00,,,0.00,VWS V13.01,2012-01-23 12:56:00,
2012-01-23 07:01:00,38.3,32.0,29.92,WSW,248,0.0,0.0,78,0.00,,,0.00,VWS V13.01,2012-01-23 13:01:00,
2012-01-23 07:06:00,38.1,32.8,29.92,SSE,164,3.6,3.6,81,0.00,,,0.00,VWS V13.01,2012-01-23 13:06:00,
2012-01-23 07:11:00,37.9,32.6,29.92,South,181,3.6,4.0,81,0.00,,,0.00,VWS V13.01,2012-01-23 13:11:00,
2012-01-23 07:16:00,37.4,32.1,29.92,SSW,194,2.7,3.1,81,0.00,,,0.00,VWS V13.01,2012-01-23 13:16:00,
2012-01-23 07:21:00,37.0,32.7,29.92,SSW,200,2.2,3.1,84,0.00,,,0.00,VWS V13.01,2012-01-23 13:21:00,
2012-01-23 07:26:00,36.9,32.5,29.92,SSW,193,2.2,2.2,84,0.00,,,0.00,VWS V13.01,2012-01-23 13:26:00,
2012-01-23 07:31:00,36.7,32.9,29.95,SSW,213,4.0,4.0,86,0.00,,,0.00,VWS V13.01,2012-01-23 13:31:00,
2012-01-23 07:36:00,36.7,33.8,29.95,WSW,241,4.0,4.0,89,0.00,,,0.00,VWS V13.01,2012-01-23 13:36:00,
2012-01-23 07:41:00,36.9,33.7,29.95,WSW,240,5.8,5.8,88,0.00,,,0.00,VWS V13.01,2012-01-23 13:41:00,
2012-01-23 07:46:00,37.0,33.8,29.95,SSW,201,4.9,6.3,88,0.00,,,0.00,VWS V13.01,2012-01-23 13:46:00,
2012-01-23 07:51:00,37.0,33.8,29.95,SW,224,4.0,4.0,88,0.00,,,0.00,VWS V13.01,2012-01-23 13:51:00,
2012-01-23 07:56:00,37.2,34.3,29.95,SW,217,3.6,3.6,89,0.00,,,0.00,VWS V13.01,2012-01-23 13:56:00,
2012-01-23 08:01:00,37.4,34.2,29.95,SW,234,4.0,4.0,88,0.00,,,0.00,VWS V13.01,2012-01-23 14:01:00,
2012-01-23 08:06:00,37.4,34.2,29.95,West,263,3.6,3.6,88,0.00,,,0.00,VWS V13.01,2012-01-23 14:06:00,
2012-01-23 08:11:00,37.6,34.1,29.95,WSW,238,4.9,4.9,87,0.00,,,0.00,VWS V13.01,2012-01-23 14:11:00,
2012-01-23 08:16:00,37.8,34.2,29.95,SW,223,3.6,3.6,87,0.00,,,0.00,VWS V13.01,2012-01-23 14:16:00,
2012-01-23 08:21:00,37.9,34.4,29.95,SW,224,4.0,5.4,87,0.00,,,0.00,VWS V13.01,2012-01-23 14:21:00,
2012-01-23 08:26:00,38.3,34.8,29.95,SW,231,5.4,5.4,87,0.00,,,0.00,VWS V13.01,2012-01-23 14:26:00,
2012-01-23 08:31:00,38.7,34.8,29.98,WSW,242,5.4,5.4,86,0.00,,,0.00,VWS V13.01,2012-01-23 14:31:00,
2012-01-23 08:36:00,38.8,34.7,29.98,SSW,206,6.3,6.3,85,0.00,,,0.00,VWS V13.01,2012-01-23 14:36:00,
2012-01-23 08:41:00,39.2,35.1,29.98,SW,221,5.4,5.8,85,0.00,,,0.00,VWS V13.01,2012-01-23 14:41:00,
2012-01-23 08:46:00,39.4,35.0,29.98,SW,218,6.3,8.1,84,0.00,,,0.00,VWS V13.01,2012-01-23 14:46:00,
2012-01-23 08:51:00,39.7,34.7,29.98,WSW,244,8.1,8.1,82,0.00,,,0.00,VWS V13.01,2012-01-23 14:51:00,
2012-01-23 08:56:00,40.1,35.1,29.98,SW,214,8.1,8.1,82,0.00,,,0.00,VWS V13.01,2012-01-23 14:56:00,
2012-01-23 09:01:00,40.5,35.1,29.98,SW,232,6.3,8.7,81,0.00,,,0.00,VWS V13.01,2012-01-23 15:01:00,
2012-01-23 09:06:00,40.8,35.1,29.98,SW,216,6.3,7.6,80,0.00,,,0.00,VWS V13.01,2012-01-23 15:06:00,
2012-01-23 09:11:00,41.2,35.2,29.98,SW,227,5.8,5.8,79,0.00,,,0.00,VWS V13.01,2012-01-23 15:11:00,
2012-01-23 09:16:00,41.5,34.9,30.01,WSW,237,11.0,11.0,77,0.00,,,0.00,VWS V13.01,2012-01-23 15:16:00,
2012-01-23 09:21:00,42.1,34.7,30.01,WSW,239,8.1,8.3,75,0.00,,,0.00,VWS V13.01,2012-01-23 15:21:00,
2012-01-23 09:26:00,42.4,34.8,30.01,SW,233,8.3,8.3,74,0.00,,,0.00,VWS V13.01,2012-01-23 15:26:00,
2012-01-23 09:31:00,42.8,34.8,30.01,SW,222,7.6,7.6,73,0.00,,,0.00,VWS V13.01,2012-01-23 15:31:00,
2012-01-23 09:36:00,43.3,34.9,30.01,SW,215,6.3,8.3,72,0.00,,,0.00,VWS V13.01,2012-01-23 15:36:00,
2012-01-23 09:41:00,43.5,35.1,30.01,WSW,242,7.2,7.2,72,0.00,,,0.00,VWS V13.01,2012-01-23 15:41:00,
2012-01-23 09:46:00,44.1,34.9,30.01,SW,231,8.1,11.4,70,0.00,,,0.00,VWS V13.01,2012-01-23 15:46:00,
2012-01-23 09:51:00,44.2,34.7,30.01,South,177,9.6,9.6,69,0.00,,,0.00,VWS V13.01,2012-01-23 15:51:00,
2012-01-23 09:56:00,44.6,35.1,30.01,SSW,212,7.2,7.2,69,0.00,,,0.00,VWS V13.01,2012-01-23 15:56:00,
2012-01-23 10:01:00,45.1,35.2,30.01,SSE,154,5.4,8.7,68,0.00,,,0.00,VWS V13.01,2012-01-23 16:01:00,
2012-01-23 10:06:00,46.0,35.3,30.01,SW,225,7.6,8.1,66,0.00,,,0.00,VWS V13.01,2012-01-23 16:06:00,
2012-01-23 10:11:00,46.0,34.6,30.01,West,265,10.1,11.0,64,0.00,,,0.00,VWS V13.01,2012-01-23 16:11:00,
2012-01-23 10:16:00,46.4,34.5,30.01,SW,217,8.7,10.5,63,0.00,,,0.00,VWS V13.01,2012-01-23 16:16:00,
2012-01-23 10:21:00,46.8,34.8,30.01,WSW,240,11.0,13.6,63,0.00,,,0.00,VWS V13.01,2012-01-23 16:21:00,
2012-01-23 10:26:00,47.1,35.6,30.01,WSW,238,8.1,8.1,64,0.00,,,0.00,VWS V13.01,2012-01-23 16:26:00,
2012-01-23 10:31:00,47.3,35.0,30.03,SW,231,8.1,8.1,62,0.00,,,0.00,VWS V13.01,2012-01-23 16:31:00,
2012-01-23 10:36:00,47.3,35.0,30.03,WSW,253,8.7,10.1,62,0.00,,,0.00,VWS V13.01,2012-01-23 16:36:00,
2012-01-23 10:41:00,47.3,34.1,30.03,WSW,239,10.5,10.5,60,0.00,,,0.00,VWS V13.01,2012-01-23 16:41:00,
2012-01-23 10:46:00,48.0,35.2,30.01,West,267,5.4,7.6,61,0.00,,,0.00,VWS V13.01,2012-01-23 16:46:00,
2012-01-23 10:51:00,48.6,34.0,30.01,WSW,246,8.7,10.1,57,0.00,,,0.00,VWS V13.01,2012-01-23 16:51:00,
2012-01-23 10:56:00,48.7,34.6,30.01,SW,226,6.3,6.3,58,0.00,,,0.00,VWS V13.01,2012-01-23 16:56:00,
2012-01-23 11:01:00,48.7,32.8,30.01,WSW,256,7.6,9.2,54,0.00,,,0.00,VWS V13.01,2012-01-23 17:01:00,
2012-01-23 11:06:00,48.4,32.0,30.01,WSW,249,8.1,8.7,53,0.00,,,0.00,VWS V13.01,2012-01-23 17:06:00,
2012-01-23 11:11:00,48.4,32.5,30.01,SW,219,6.3,10.1,54,0.00,,,0.00,VWS V13.01,2012-01-23 17:11:00,
2012-01-23 11:16:00,48.6,32.2,30.01,SW,226,5.4,5.4,53,0.00,,,0.00,VWS V13.01,2012-01-23 17:16:00,
2012-01-23 11:21:00,48.4,32.0,30.01,West,261,13.2,13.2,53,0.00,,,0.00,VWS V13.01,2012-01-23 17:21:00,
2012-01-23 11:26:00,48.6,32.2,30.01,WSW,245,3.6,6.3,53,0.00,,,0.00,VWS V13.01,2012-01-23 17:26:00,
2012-01-23 11:31:00,49.1,32.7,30.01,SSE,147,8.7,10.5,53,0.00,,,0.00,VWS V13.01,2012-01-23 17:31:00,
2012-01-23 11:36:00,49.6,33.2,30.01,SW,223,6.3,8.3,53,0.00,,,0.00,VWS V13.01,2012-01-23 17:36:00,
2012-01-23 11:41:00,50.0,33.1,30.01,SSW,200,5.8,6.7,52,0.00,,,0.00,VWS V13.01,2012-01-23 17:41:00,
2012-01-23 11:46:00,50.4,33.9,30.01,SW,232,4.9,7.6,53,0.00,,,0.00,VWS V13.01,2012-01-23 17:46:00,
2012-01-23 11:51:00,50.7,33.8,30.01,WSW,240,15.4,15.4,52,0.00,,,0.00,VWS V13.01,2012-01-23 17:51:00,
2012-01-23 11:56:00,51.1,33.6,30.01,WSW,240,10.1,10.1,51,0.00,,,0.00,VWS V13.01,2012-01-23 17:56:00,
2012-01-23 12:01:00,51.3,33.8,30.01,WSW,245,9.2,10.5,51,0.00,,,0.00,VWS V13.01,2012-01-23 18:01:00,
2012-01-23 12:06:00,51.1,33.6,30.01,SW,232,8.1,8.3,51,0.00,,,0.00,VWS V13.01,2012-01-23 18:06:00,
2012-01-23 12:11:00,50.4,32.9,30.01,SW,232,10.5,12.8,51,0.00,,,0.00,VWS V13.01,2012-01-23 18:11:00,
2012-01-23 12:16:00,50.0,32.6,30.01,SSW,212,7.2,17.0,51,0.00,,,0.00,VWS V13.01,2012-01-23 18:16:00,
2012-01-23 12:21:00,50.2,32.8,30.01,WSW,245,8.1,8.7,51,0.00,,,0.00,VWS V13.01,2012-01-23 18:21:00,
2012-01-23 12:26:00,50.5,33.6,30.01,SW,225,6.3,10.5,52,0.00,,,0.00,VWS V13.01,2012-01-23 18:26:00,
2012-01-23 12:31:00,50.9,33.4,30.01,SW,218,7.6,10.5,51,0.00,,,0.00,VWS V13.01,2012-01-23 18:31:00,
2012-01-23 12:36:00,50.9,33.4,30.01,SW,214,7.6,9.2,51,0.00,,,0.00,VWS V13.01,2012-01-23 18:36:00,
2012-01-23 12:41:00,50.4,32.9,30.01,SSW,209,6.3,10.1,51,0.00,,,0.00,VWS V13.01,2012-01-23 18:41:00,
2012-01-23 12:46:00,50.4,32.9,30.01,WSW,246,9.2,9.2,51,0.00,,,0.00,VWS V13.01,2012-01-23 18:46:00,
2012-01-23 12:51:00,50.9,33.4,30.01,SSW,195,7.6,8.1,51,0.00,,,0.00,VWS V13.01,2012-01-23 18:51:00,
2012-01-23 12:56:00,51.4,33.4,30.01,SW,228,8.7,11.9,50,0.00,,,0.00,VWS V13.01,2012-01-23 18:56:00,
2012-01-23 13:01:00,51.8,33.3,30.01,SW,228,7.6,7.6,49,0.00,,,0.00,VWS V13.01,2012-01-23 19:01:00,
2012-01-23 13:06:00,51.8,32.2,30.01,SSE,156,10.5,12.8,47,0.00,,,0.00,VWS V13.01,2012-01-23 19:06:00,
2012-01-23 13:11:00,51.8,32.2,30.01,WSW,238,11.0,11.0,47,0.00,,,0.00,VWS V13.01,2012-01-23 19:11:00,
2012-01-23 13:16:00,52.3,33.8,30.01,SSW,196,5.4,8.1,49,0.00,,,0.00,VWS V13.01,2012-01-23 19:16:00,
2012-01-23 13:21:00,52.9,32.7,30.01,SSW,199,8.7,10.5,46,0.00,,,0.00,VWS V13.01,2012-01-23 19:21:00,
2012-01-23 13:26:00,52.9,32.7,30.01,SSW,203,8.1,8.1,46,0.00,,,0.00,VWS V13.01,2012-01-23 19:26:00,
2012-01-23 13:31:00,52.9,32.7,30.01,SSW,202,10.1,11.0,46,0.00,,,0.00,VWS V13.01,2012-01-23 19:31:00,
2012-01-23 13:36:00,53.1,33.9,30.01,SSW,195,5.8,9.2,48,0.00,,,0.00,VWS V13.01,2012-01-23 19:36:00,
2012-01-23 13:41:00,54.1,34.4,30.01,SW,219,10.1,10.1,47,0.00,,,0.00,VWS V13.01,2012-01-23 19:41:00,
2012-01-23 13:46:00,54.1,33.8,30.01,South,181,10.5,11.4,46,0.00,,,0.00,VWS V13.01,2012-01-23 19:46:00,
2012-01-23 13:51:00,54.5,33.6,30.01,SSW,196,6.3,6.3,45,0.00,,,0.00,VWS V13.01,2012-01-23 19:51:00,
2012-01-23 13:56:00,54.9,35.0,30.01,SSW,211,5.8,8.1,47,0.00,,,0.00,VWS V13.01,2012-01-23 19:56:00,
2012-01-23 14:01:00,55.2,34.3,29.98,South,187,10.5,10.5,45,0.00,,,0.00,VWS V13.01,2012-01-23 20:01:00,
2012-01-23 14:06:00,55.4,33.9,29.98,WSW,237,8.7,8.7,44,0.00,,,0.00,VWS V13.01,2012-01-23 20:06:00,
2012-01-23 14:11:00,55.4,33.9,29.98,SW,219,8.1,11.9,44,0.00,,,0.00,VWS V13.01,2012-01-23 20:11:00,
2012-01-23 14:16:00,55.0,33.5,29.98,SSW,213,8.7,10.5,44,0.00,,,0.00,VWS V13.01,2012-01-23 20:16:00,
2012-01-23 14:21:00,55.2,33.7,29.98,SW,232,10.5,11.0,44,0.00,,,0.00,VWS V13.01,2012-01-23 20:21:00,
2012-01-23 14:26:00,55.2,33.7,29.98,SW,221,9.6,10.5,44,0.00,,,0.00,VWS V13.01,2012-01-23 20:26:00,
2012-01-23 14:31:00,55.0,33.0,30.01,SW,222,12.8,12.8,43,0.00,,,0.00,VWS V13.01,2012-01-23 20:31:00,
2012-01-23 14:36:00,55.6,33.5,30.01,SSW,203,8.7,8.7,43,0.00,,,0.00,VWS V13.01,2012-01-23 20:36:00,
2012-01-23 14:41:00,55.9,33.8,30.01,SSW,204,10.1,10.1,43,0.00,,,0.00,VWS V13.01,2012-01-23 20:41:00,
2012-01-23 14:46:00,55.9,33.8,30.01,WSW,249,9.2,9.6,43,0.00,,,0.00,VWS V13.01,2012-01-23 20:46:00,
2012-01-23 14:51:00,55.9,33.8,30.01,SSW,196,8.7,8.7,43,0.00,,,0.00,VWS V13.01,2012-01-23 20:51:00,
2012-01-23 14:56:00,56.1,33.4,30.01,South,172,9.6,10.1,42,0.00,,,0.00,VWS V13.01,2012-01-23 20:56:00,
2012-01-23 15:01:00,55.9,33.2,30.01,SW,224,8.7,17.0,42,0.00,,,0.00,VWS V13.01,2012-01-23 21:01:00,
2012-01-23 15:06:00,55.9,33.2,30.01,SSW,200,7.6,10.1,42,0.00,,,0.00,VWS V13.01,2012-01-23 21:06:00,
2012-01-23 15:11:00,56.1,33.4,30.01,SSW,200,12.8,14.5,42,0.00,,,0.00,VWS V13.01,2012-01-23 21:11:00,
2012-01-23 15:16:00,55.9,33.2,29.98,SW,219,7.6,12.3,42,0.00,,,0.00,VWS V13.01,2012-01-23 21:16:00,
2012-01-23 15:21:00,56.1,33.4,29.98,SW,234,6.3,10.1,42,0.00,,,0.00,VWS V13.01,2012-01-23 21:21:00,
2012-01-23 15:26:00,56.3,33.5,29.98,SW,218,7.6,10.5,42,0.00,,,0.00,VWS V13.01,2012-01-23 21:26:00,
2012-01-23 15:31:00,55.9,33.2,29.98,SW,235,13.2,13.2,42,0.00,,,0.00,VWS V13.01,2012-01-23 21:31:00,
2012-01-23 15:36:00,56.1,33.4,29.98,SW,226,9.2,9.2,42,0.00,,,0.00,VWS V13.01,2012-01-23 21:36:00,
2012-01-23 15:41:00,56.1,33.4,29.98,SW,231,8.3,8.3,42,0.00,,,0.00,VWS V13.01,2012-01-23 21:41:00,
2012-01-23 15:46:00,56.1,33.4,30.01,SW,225,11.0,12.3,42,0.00,,,0.00,VWS V13.01,2012-01-23 21:46:00,
2012-01-23 15:51:00,56.1,33.4,30.01,SW,214,5.4,8.7,42,0.00,,,0.00,VWS V13.01,2012-01-23 21:51:00,
2012-01-23 15:56:00,56.1,33.4,30.01,SW,229,11.0,11.9,42,0.00,,,0.00,VWS V13.01,2012-01-23 21:56:00,
2012-01-23 16:01:00,55.9,33.2,30.01,SSW,193,7.6,8.1,42,0.00,,,0.00,VWS V13.01,2012-01-23 22:01:00,
2012-01-23 16:06:00,55.8,33.0,30.01,SSW,204,8.3,10.1,42,0.00,,,0.00,VWS V13.01,2012-01-23 22:06:00,
2012-01-23 16:11:00,55.8,33.0,30.01,SSW,210,6.7,8.3,42,0.00,,,0.00,VWS V13.01,2012-01-23 22:11:00,
2012-01-23 16:16:00,55.6,32.9,30.01,SW,228,6.3,6.3,42,0.00,,,0.00,VWS V13.01,2012-01-23 22:16:00,
2012-01-23 16:21:00,55.6,32.9,30.01,SW,234,8.1,11.0,42,0.00,,,0.00,VWS V13.01,2012-01-23 22:21:00,
2012-01-23 16:26:00,55.2,32.5,30.01,SSW,211,5.8,8.3,42,0.00,,,0.00,VWS V13.01,2012-01-23 22:26:00,
2012-01-23 16:31:00,55.2,32.5,30.01,SW,224,8.3,10.5,42,0.00,,,0.00,VWS V13.01,2012-01-23 22:31:00,
2012-01-23 16:36:00,55.0,32.4,30.01,SW,219,9.6,9.6,42,0.00,,,0.00,VWS V13.01,2012-01-23 22:36:00,
2012-01-23 16:41:00,55.0,32.4,30.01,WSW,238,12.8,12.8,42,0.00,,,0.00,VWS V13.01,2012-01-23 22:41:00,
2012-01-23 16:46:00,54.9,32.2,30.01,SW,232,5.4,5.8,42,0.00,,,0.00,VWS V13.01,2012-01-23 22:46:00,
2012-01-23 16:51:00,54.7,32.1,30.01,SW,221,5.8,6.3,42,0.00,,,0.00,VWS V13.01,2012-01-23 22:51:00,
2012-01-23 16:56:00,54.5,31.9,30.01,SW,232,5.4,8.3,42,0.00,,,0.00,VWS V13.01,2012-01-23 22:56:00,
2012-01-23 17:01:00,54.5,31.9,30.01,WSW,240,5.4,5.8,42,0.00,,,0.00,VWS V13.01,2012-01-23 23:01:00,
2012-01-23 17:06:00,54.3,31.7,30.01,West,259,7.6,7.6,42,0.00,,,0.00,VWS V13.01,2012-01-23 23:06:00,
2012-01-23 17:11:00,54.0,31.4,30.01,SW,220,5.4,5.4,42,0.00,,,0.00,VWS V13.01,2012-01-23 23:11:00,
2012-01-23 17:16:00,53.8,31.2,30.01,SW,225,6.3,8.1,42,0.00,,,0.00,VWS V13.01,2012-01-23 23:16:00,
2012-01-23 17:21:00,53.6,31.1,30.01,SW,233,4.0,5.4,42,0.00,,,0.00,VWS V13.01,2012-01-23 23:21:00,
2012-01-23 17:26:00,53.1,31.2,30.01,SW,223,3.6,4.0,43,0.00,,,0.00,VWS V13.01,2012-01-23 23:26:00,
2012-01-23 17:31:00,52.7,30.3,30.01,SSW,212,3.1,4.0,42,0.00,,,0.00,VWS V13.01,2012-01-23 23:31:00,
2012-01-23 17:36:00,52.3,30.0,30.01,SW,224,2.2,2.7,42,0.00,,,0.00,VWS V13.01,2012-01-23 23:36:00,
2012-01-23 17:41:00,52.3,30.0,30.01,SW,217,4.0,4.0,42,0.00,,,0.00,VWS V13.01,2012-01-23 23:41:00,
2012-01-23 17:46:00,52.2,29.8,30.03,SW,236,2.7,3.6,42,0.00,,,0.00,VWS V13.01,2012-01-23 23:46:00,
2012-01-23 17:51:00,52.0,30.2,30.03,SW,236,0.0,0.0,43,0.00,,,0.00,VWS V13.01,2012-01-23 23:51:00,
2012-01-23 17:56:00,51.8,29.5,30.03,West,264,2.7,2.7,42,0.00,,,0.00,VWS V13.01,2012-01-23 23:56:00,
2012-01-23 18:01:00,51.6,29.9,30.03,West,261,0.0,0.0,43,0.00,,,0.00,VWS V13.01,2012-01-24 00:01:00,
2012-01-23 18:06:00,51.4,29.7,30.03,WSW,254,0.0,0.0,43,0.00,,,0.00,VWS V13.01,2012-01-24 00:06:00,
2012-01-23 18:11:00,51.3,29.5,30.03,West,269,2.2,2.7,43,0.00,,,0.00,VWS V13.01,2012-01-24 00:11:00,
2012-01-23 18:16:00,51.1,29.4,30.03,West,268,0.0,0.0,43,0.00,,,0.00,VWS V13.01,2012-01-24 00:16:00,
2012-01-23 18:21:00,50.7,29.6,30.03,West,268,0.0,0.0,44,0.00,,,0.00,VWS V13.01,2012-01-24 00:21:00,
2012-01-23 18:26:00,49.8,28.8,30.03,West,269,0.0,0.0,44,0.00,,,0.00,VWS V13.01,2012-01-24 00:26:00,
2012-01-23 18:31:00,48.7,28.4,30.03,West,269,0.0,0.0,45,0.00,,,0.00,VWS V13.01,2012-01-24 00:31:00,
2012-01-23 18:36:00,47.8,28.1,30.03,NNW,338,0.0,0.0,46,0.00,,,0.00,VWS V13.01,2012-01-24 00:36:00,
2012-01-23 18:37:00,47.7,27.9,30.03,North,353,0.0,0.0,46,0.00,,,0.00,VWS V13.01,2012-01-24 00:37:00,
2012-01-23 18:42:00,47.1,27.9,30.03,NNE,29,0.0,0.0,47,0.00,,,0.00,VWS V13.01,2012-01-24 00:42:00,
2012-01-23 18:47:00,46.8,28.6,30.03,NNE,29,0.0,0.0,49,0.00,,,0.00,VWS V13.01,2012-01-24 00:47:00,
2012-01-23 18:52:00,45.1,29.0,30.03,North,7,0.0,0.0,53,0.00,,,0.00,VWS V13.01,2012-01-24 00:52:00,
2012-01-23 18:57:00,44.4,28.8,30.03,North,8,0.0,0.0,54,0.00,,,0.00,VWS V13.01,2012-01-24 00:57:00,
2012-01-23 19:02:00,44.1,29.4,30.03,North,8,0.0,0.0,56,0.00,,,0.00,VWS V13.01,2012-01-24 01:02:00,
2012-01-23 19:07:00,43.3,29.6,30.03,NNW,345,0.0,0.0,58,0.00,,,0.00,VWS V13.01,2012-01-24 01:07:00,
2012-01-23 19:12:00,42.4,29.5,30.03,NNW,345,0.0,0.0,60,0.00,,,0.00,VWS V13.01,2012-01-24 01:12:00,
2012-01-23 19:17:00,41.7,30.1,30.03,NNE,16,0.0,0.0,63,0.00,,,0.00,VWS V13.01,2012-01-24 01:17:00,
2012-01-23 19:22:00,40.8,29.6,30.03,NNE,21,0.0,0.0,64,0.00,,,0.00,VWS V13.01,2012-01-24 01:22:00,
2012-01-23 19:27:00,40.3,29.1,30.03,NNE,21,0.0,0.0,64,0.00,,,0.00,VWS V13.01,2012-01-24 01:27:00,
2012-01-23 19:32:00,40.1,28.9,30.03,NNE,20,0.0,0.0,64,0.00,,,0.00,VWS V13.01,2012-01-24 01:32:00,
2012-01-23 19:37:00,40.3,29.5,30.03,NNE,20,0.0,0.0,65,0.00,,,0.00,VWS V13.01,2012-01-24 01:37:00,
2012-01-23 19:42:00,40.3,29.1,30.03,NW,322,0.0,0.0,64,0.00,,,0.00,VWS V13.01,2012-01-24 01:42:00,
2012-01-23 19:47:00,39.9,29.1,30.03,NW,322,0.0,0.0,65,0.00,,,0.00,VWS V13.01,2012-01-24 01:47:00,
2012-01-23 19:52:00,39.4,29.4,30.03,NNW,338,0.0,0.0,67,0.00,,,0.00,VWS V13.01,2012-01-24 01:52:00,
2012-01-23 19:57:00,38.8,29.5,30.03,NNW,338,0.0,0.0,69,0.00,,,0.00,VWS V13.01,2012-01-24 01:57:00,
2012-01-23 20:02:00,38.5,29.2,30.03,NNW,339,0.0,0.0,69,0.00,,,0.00,VWS V13.01,2012-01-24 02:02:00,
2012-01-23 20:07:00,37.9,29.0,30.03,NNW,339,0.0,0.0,70,0.00,,,0.00,VWS V13.01,2012-01-24 02:07:00,
2012-01-23 20:12:00,37.6,29.0,30.03,NNW,339,0.0,0.0,71,0.00,,,0.00,VWS V13.01,2012-01-24 02:12:00,
2012-01-23 20:17:00,37.4,29.2,30.06,NNW,339,0.0,0.0,72,0.00,,,0.00,VWS V13.01,2012-01-24 02:17:00,
2012-01-23 20:22:00,37.0,29.5,30.06,NNW,339,0.0,0.0,74,0.00,,,0.00,VWS V13.01,2012-01-24 02:22:00,
2012-01-23 20:27:00,36.9,29.4,30.06,NNW,339,0.0,0.0,74,0.00,,,0.00,VWS V13.01,2012-01-24 02:27:00,
2012-01-23 20:31:00,36.7,29.8,30.06,NNW,339,0.0,0.0,76,0.00,,,0.00,VWS V13.01,2012-01-24 02:31:00,
2012-01-23 20:37:00,36.1,29.6,30.06,NNE,29,2.7,3.1,77,0.00,,,0.00,VWS V13.01,2012-01-24 02:37:00,
2012-01-23 20:41:00,35.6,29.7,30.06,NNE,29,2.2,2.7,79,0.00,,,0.00,VWS V13.01,2012-01-24 02:41:00,
2012-01-23 20:47:00,35.4,29.9,30.06,NNE,29,0.0,2.2,80,0.00,,,0.00,VWS V13.01,2012-01-24 02:47:00,
2012-01-23 20:51:00,35.1,29.8,30.06,NNE,29,0.0,0.0,81,0.00,,,0.00,VWS V13.01,2012-01-24 02:51:00,
2012-01-23 20:56:00,34.9,30.0,30.06,NNE,29,0.0,0.0,82,0.00,,,0.00,VWS V13.01,2012-01-24 02:56:00,
2012-01-23 21:01:00,34.5,29.9,30.06,NNE,29,0.0,0.0,83,0.00,,,0.00,VWS V13.01,2012-01-24 03:01:00,
2012-01-23 21:06:00,34.3,30.0,30.06,NNE,29,0.0,0.0,84,0.00,,,0.00,VWS V13.01,2012-01-24 03:06:00,
2012-01-23 21:11:00,34.0,29.7,30.06,NNE,29,0.0,0.0,84,0.00,,,0.00,VWS V13.01,2012-01-24 03:11:00,
2012-01-23 21:16:00,34.0,30.0,30.06,North,9,0.0,0.0,85,0.00,,,0.00,VWS V13.01,2012-01-24 03:16:00,
2012-01-23 21:21:00,33.8,29.8,30.06,North,9,0.0,0.0,85,0.00,,,0.00,VWS V13.01,2012-01-24 03:21:00,
2012-01-23 21:26:00,33.3,29.8,30.06,NE,34,0.0,0.0,87,0.00,,,0.00,VWS V13.01,2012-01-24 03:26:00,
2012-01-23 21:31:00,33.1,29.9,30.06,NE,39,3.1,3.1,88,0.00,,,0.00,VWS V13.01,2012-01-24 03:31:00,
2012-01-23 21:36:00,32.9,30.3,30.06,NE,39,2.2,2.2,90,0.00,,,0.00,VWS V13.01,2012-01-24 03:36:00,
2012-01-23 21:41:00,33.1,30.5,30.06,NE,40,0.0,0.0,90,0.00,,,0.00,VWS V13.01,2012-01-24 03:41:00,
2012-01-23 21:46:00,33.1,30.2,30.06,NE,39,0.0,0.0,89,0.00,,,0.00,VWS V13.01,2012-01-24 03:46:00,
2012-01-23 21:51:00,33.1,30.2,30.06,NE,40,0.0,0.0,89,0.00,,,0.00,VWS V13.01,2012-01-24 03:51:00,
2012-01-23 21:56:00,33.1,30.7,30.06,NE,39,0.0,0.0,91,0.00,,,0.00,VWS V13.01,2012-01-24 03:56:00,
2012-01-23 22:01:00,32.9,30.3,30.06,NE,40,0.0,0.0,90,0.00,,,0.00,VWS V13.01,2012-01-24 04:01:00,
2012-01-23 22:06:00,32.7,30.1,30.06,NE,39,0.0,0.0,90,0.00,,,0.00,VWS V13.01,2012-01-24 04:06:00,
2012-01-23 22:11:00,32.7,30.4,30.06,NE,39,0.0,0.0,91,0.00,,,0.00,VWS V13.01,2012-01-24 04:11:00,
2012-01-23 22:16:00,32.7,30.4,30.06,NNE,30,0.0,0.0,91,0.00,,,0.00,VWS V13.01,2012-01-24 04:16:00,
2012-01-23 22:21:00,32.4,29.5,30.06,NNW,327,0.0,0.0,89,0.00,,,0.00,VWS V13.01,2012-01-24 04:21:00,
2012-01-23 22:26:00,32.2,29.6,30.06,NNW,328,0.0,0.0,90,0.00,,,0.00,VWS V13.01,2012-01-24 04:26:00,
2012-01-23 22:31:00,32.0,29.4,30.06,NNW,328,0.0,0.0,90,0.00,,,0.00,VWS V13.01,2012-01-24 04:31:00,
2012-01-23 22:36:00,31.8,29.5,30.06,NNW,328,0.0,0.0,91,0.00,,,0.00,VWS V13.01,2012-01-24 04:36:00,
2012-01-23 22:41:00,31.6,29.3,30.06,NNW,328,0.0,0.0,91,0.00,,,0.00,VWS V13.01,2012-01-24 04:41:00,
2012-01-23 22:46:00,31.5,29.4,30.06,NNW,328,0.0,0.0,92,0.00,,,0.00,VWS V13.01,2012-01-24 04:46:00,
2012-01-23 22:51:00,31.5,29.7,30.06,NNW,328,0.0,0.0,93,0.00,,,0.00,VWS V13.01,2012-01-24 04:51:00,
2012-01-23 22:56:00,31.5,29.7,30.06,NNW,329,0.0,0.0,93,0.00,,,0.00,VWS V13.01,2012-01-24 04:56:00,
2012-01-23 23:00:00,31.1,29.3,30.06,NNW,333,0.0,0.0,93,0.00,,,0.00,VWS V13.01,2012-01-24 05:00:00,
2012-01-23 23:01:00,31.1,29.3,30.06,NNW,333,0.0,0.0,93,0.00,,,0.00,VWS V13.01,2012-01-24 05:01:00,
2012-01-23 23:06:00,30.9,29.4,30.06,NNW,342,0.0,0.0,94,0.00,,,0.00,VWS V13.01,2012-01-24 05:06:00,
2012-01-23 23:11:00,30.7,29.2,30.06,NNW,342,0.0,0.0,94,0.00,,,0.00,VWS V13.01,2012-01-24 05:11:00,
2012-01-23 23:16:00,30.4,29.1,30.06,NNW,342,0.0,0.0,95,0.00,,,0.00,VWS V13.01,2012-01-24 05:16:00,
2012-01-23 23:21:00,30.2,28.9,30.06,NNW,342,0.0,0.0,95,0.00,,,0.00,VWS V13.01,2012-01-24 05:21:00,
2012-01-23 23:26:00,30.0,29.0,30.06,NNW,342,0.0,0.0,96,0.00,,,0.00,VWS V13.01,2012-01-24 05:26:00,
2012-01-23 23:31:00,30.2,29.7,30.06,NNW,342,0.0,0.0,98,0.00,,,0.00,VWS V13.01,2012-01-24 05:31:00,
2012-01-23 23:36:00,30.0,29.8,30.06,NNW,342,0.0,0.0,99,0.00,,,0.00,VWS V13.01,2012-01-24 05:36:00,
2012-01-23 23:41:00,30.0,29.5,30.06,NNW,342,0.0,0.0,98,0.00,,,0.00,VWS V13.01,2012-01-24 05:41:00,
2012-01-23 23:46:00,30.0,29.5,30.06,NNW,348,0.0,0.0,98,0.00,,,0.00,VWS V13.01,2012-01-24 05:46:00,
2012-01-23 23:51:00,30.0,30.0,30.06,NNE,31,0.0,0.0,100,0.00,,,0.00,VWS V13.01,2012-01-24 05:51:00,
2012-01-23 23:56:00,30.0,30.0,30.06,NNE,31,0.0,0.0,100,0.00,,,0.00,VWS V13.01,2012-01-24 05:56:00,